Regional Weather Roundup
Issued by NWS

Home | Current Version | Previous Version | Text Only | Print | Product List | Glossary Off
Versions: 1 2 3 4 5 6 7 8 9 10 11 12 13 14 15 16 17 18 19 20 21 22 23 24 25 26 27 28 29 30 31 32 33 34 35 36 37 38 39 40 41 42 43 44 45 46 47 48 49 50

000
ASUS43 KFSD 200210
RWRSD

WEATHER ROUNDUP FOR SOUTH DAKOTA
NATIONAL WEATHER SERVICE SIOUX FALLS SD
900 PM CDT SAT MAY 19 2018

NOTE: "FAIR" INDICATES FEW OR NO CLOUDS BELOW 12,000 FEET WITH NO
SIGNIFICANT WEATHER AND/OR OBSTRUCTIONS TO VISIBILITY.


SDZ001>005-009-010-012>017-200300-
NORTHWEST AND NORTH CENTRAL SOUTH DAKOTA

CITY           SKY/WX    TMP DP  RH WIND       PRES   REMARKS
BUFFALO          N/A     55  35  47 E8        30.17S
FAITH            N/A     53  43  68 NE5       30.22R
MOBRIDGE       PTCLDY    56  40  55 NE8       30.19R
$$

SDZ012>016-024>037-041>051-057-063-072>074-200300-
SOUTHWEST AND SOUTH CENTRAL SOUTH DAKOTA

CITY           SKY/WX    TMP DP  RH WIND       PRES   REMARKS
RAPID CTY ARPT CLOUDY    50  41  71 NW7       30.23R
PIERRE         MOCLDY    56  37  49 N10       30.15R
CUSTER         CLOUDY    42  28  57 NE5       30.24R
ELLSWORTH AFB  CLOUDY    52  38  58 N7        30.23R
PHILIP         MOCLDY    52  42  69 N8        30.19R
PINE RIDGE     CLOUDY    48  45  89 NW7       30.22R
SPEARFISH      CLOUDY    48  39  71 S5        30.25S
WINNER         FAIR      57  38  48 N10       30.12R
$$

SDZ004>011-016>023-039-040-200300-
NORTHEAST SOUTH DAKOTA

CITY           SKY/WX    TMP DP  RH WIND       PRES   REMARKS
ABERDEEN       MOCLDY    61  30  31 N13       30.16R
WATERTOWN      CLOUDY    57  34  41 NE14      30.10R
BROOKINGS      CLOUDY    60  41  49 NE9       30.07R
SISSETON         N/A     60  35  39 NE10      30.13R
$$

SDZ017-020-022-023-036>040-048>070-200300-
SOUTHEAST SOUTH DAKOTA

CITY           SKY/WX    TMP DP  RH WIND       PRES   REMARKS
SIOUX FALLS    CLOUDY    60  50  69 E7        30.03R
HURON          CLOUDY    60  32  34 NE13      30.10R
CHAMBERLAIN    CLOUDY    61  37  39 N10       30.11R
MITCHELL       CLOUDY    63  41  44 NE13      30.07R
$$

ABBREVIATIONS USED IN REMARKS
   TC - TEMPERATURE IN CELSIUS
  WCI - WIND CHILL INDEX
   HX - HEAT INDEX
  VSB - VISIBILITY





USA.gov is the U.S. government's official web portal to all federal, state and local government web resources and services.